Location: Aytr�
(46.1357°N, 1.1145°W)
Time: 05:53:41
(UTC+00:00)

ISS - Pass Details

Date: 18 September 2021
Orbit: 417 x 423 km, 51.6° (Epoch: 18 October)

Event Time Altitude Azimuth Distance (km) Brightness Sun altitude
Rises 18:43:51 0° 214° (SSW) 2,349 0.4 -6.7°
Reaches altitude 10° 18:46:05 10° 202° (SSW) 1,490 -0.8 -7.1°
Maximum altitude 18:49:02 29° 141° (SE) 797 -2.7 -7.6°
Drops below altitude 10° 18:52:00 10° 79° (ENE) 1,501 -1.5 -8.1°
Enters shadow 18:52:08 - 78° (ENE) 1,551 -1.5 -8.1°
